Home > Weather > Toronto > Past weeks

Flag for Canada Past Weather in Toronto, Ontario, Canada — Yesterday and Last 2 Weeks

Now
70 °F

Passing clouds.


Feels Like: 70 °F
Forecast: 56 / 77 °F
Wind: 2 mph from North

Location: Toronto Pearson International Airport

Current Time: Jun 30, 2016 at 10:17:41 AM

Latest Report: Jun 30, 2016 at 9:00 AM


Visibility: 15 mi

Pressure: 30.05 "Hg

Humidity: 38%

Dew Point: 43 °F

Location of TorontoLocation

Past Weather in Toronto — Graph

°F

Toronto Temperature Yesterday

Maximum temperature yesterday: 79 °F (at 4:00 PM)
Minimum temperature yesterday: 57 °F (at 6:00 AM)
Average temperature yesterday: 69 °F

High & Low Weather Summary for the Past Weeks

 TemperatureHumidityPressure
High93 °F (Jun 20, 2:00 PM)94% (Jun 27, 5:00 AM)30.27 "Hg (Jun 27, 5:00 AM)
Low55 °F (Jun 23, 5:00 AM)22% (Jun 17, 5:00 PM)29.74 "Hg (Jun 16, 3:00 PM)
Average73 °F47%29.97 "Hg
* Reported Jun 15 9:00 AM — Jun 30 9:00 AM, Toronto, Weather by CustomWeather, © 2016

Note: Actual official high and low records may vary slightly from our data, if they occured in-between our weather recording intervals... More about our weather records

Advertising

Toronto Weather History for the Previous 24 Hours

Scroll right to see more
 ConditionsComfort  
Time TempWeatherWind HumidityBarometerVisibility
9:00 AM
Thu, Jun 30
70 °FPassing clouds.2 mph38%30.05 "Hg15 mi
8:00 AM64 °FPassing clouds.3 mph46%30.04 "Hg15 mi
7:00 AM59 °FPassing clouds.3 mph59%30.03 "Hg15 mi
6:00 AM55 °FPassing clouds.5 mph63%30.03 "Hg15 mi
5:00 AM55 °FPassing clouds.5 mph67%30.02 "Hg15 mi
4:00 AM59 °FClear.3 mph59%30.02 "Hg15 mi
3:00 AM59 °FClear.6 mph59%30.01 "Hg15 mi
2:00 AM61 °FClear.7 mph55%30.01 "Hg15 mi
1:00 AM63 °FClear.7 mph49%30.01 "Hg15 mi
12:00 AM64 °FClear.8 mph43%30.01 "Hg15 mi
11:00 PM
Wed, Jun 29
66 °FClear.9 mph40%30.00 "Hg15 mi
10:00 PM68 °FSunny.13 mph40%29.99 "Hg15 mi
9:00 PM72 °FPassing clouds.14 mph36%29.98 "Hg15 mi
8:00 PM75 °FPassing clouds.13 mph34%29.97 "Hg15 mi
7:00 PM79 °FPassing clouds.12 mph24%29.96 "Hg15 mi
6:00 PM79 °FPassing clouds.6 mph28%29.96 "Hg15 mi
5:00 PM79 °FPassing clouds.10 mph32%29.96 "Hg15 mi
4:00 PM79 °FPassing clouds.9 mph34%29.97 "Hg15 mi
3:00 PM77 °FPassing clouds.7 mph34%29.97 "Hg15 mi
2:00 PM77 °FPassing clouds.15 mph34%29.98 "Hg15 mi
1:00 PM75 °FScattered clouds.12 mph36%29.99 "Hg15 mi
12:00 PM73 °FPartly sunny.14 mph44%30.00 "Hg15 mi
11:00 AM73 °FPartly sunny.14 mph50%29.98 "Hg15 mi
10:00 AM70 °FPartly sunny.15 mph57%29.99 "Hg15 mi
Weather by CustomWeather, © 2016

See weather overviewHow to use our weather pages